CZ-4C DEB, 42671

Orbit data source: Space-Track

CZ-4C DEB, 42671 is space debris in SSO originally from a launch on Thu, 26 Nov 2015 UTC launched from the Taiyaun Space Center, China (TSC). Debris objects in space refer to the collection of defunct objects orbiting the Earth. Examples of debris include non-operational satellites, rocket bodies, and fragments generated from explosions, collisions, or faulty payload assembly.

Loading next visibility...
CZ-4C DEB details
Identifier
42671, 2015-069D
Orbit
SSO
Last TLE update18 hours ago
Origin
Flag of CNCNSA (CN / PRC)
ManufacturerUnknown
MissionSpacecraft
Bus & MotorUnknown
MassUnknown
Launch date (UTC)
2015-11-26 (9 years ago)
Launch vehicleUnknown
Launch site
Taiyaun Space Center, China (TSC)
Object type
Payload
Rocket body
Debris
Shape & HBRUnknown
Radar Cross SectionSmall (<0.1 m²)

Expand to show TLE details & history

TLE from 18 hours ago
0 CZ-4C DEB
1 42671U 15069D   24360.86299979  .00016165  00000-0  24081-2 0  9991
2 42671  97.8521 229.9323 0127755 306.9824  51.9742 14.69506341477198
Epoch: 2024-12-25T20:42Z
Definitive object data (Epoch: 2024-12-25T20:42:43.181Z)
Latitude-0.00006°
Longitude-175.59826°
Altitude610.954 km
Speed7.583 km/s
True Right ascension15h 19m 43s
True Declination0° 00' 00"
Sunlit
Object was in daylight at TLE epoch
Visualization TLE readout
Latitude27.05311°
Longitude-178.88967°
Altitude653.416 km
Speed7.54 km/s
Apparent Right ascension17h 38m 56s
Apparent Declination-24° 50' 30"
Sunlit
Object is in daylight
Visualization observer readout
Local Sidereal Time14:10:30
Azimuth133.507° SE
Elevation9.083°
Doppler factor1
Orbital elements
Apogee altitude749.608 km
Perigee altitude569.785 km
Semi-major axis7,037.834 km
Eccentricity0.0127755
Inclination97.8521°
RAAN229.9323°
Arg. of periapsis306.9824°
True anomaly53.13879°
Mean anomaly51.9742°
Eccentric anomaly52.55535°
Mean motion3.67608 °/min
BSTAR0.0024081
Orbital period97.93 mins
Loading maneuver chart data...
Loading historical data...
Loading historical data...
Loading historical data...
Loading historical data...
Loading historical data...
Loading historical data...
Loading historical data...

CZ-4C DEB Visibility forecast

Observer location: undefined°, undefined

Span
Click to sort rows by Start time (UTC) header in descending order
Start Az.
Max El. time (UTC)
Max El. Az.
Max El.
End time (UTC)
End Az.
7 mins2024-12-26 14:49:35.850Z126.926° SE2024-12-26 14:52:35.850Z75.001° E28.302°2024-12-26 14:56:35.850Z8.855° NNE
5 mins2024-12-26 16:27:35.850Z227.912° WSW2024-12-26 16:29:35.850Z262.267° W21.267°2024-12-26 16:32:35.850Z310.98° NW
8 mins2024-12-27 04:20:35.850Z14.635° NNE2024-12-27 04:24:35.850Z174.293° S43.801°2024-12-27 04:28:35.850Z191.459° SSW
|